Temperature
20 19 19 19 19 18 18 18 17 17 17 17 17 17 17 17 16 16 16 16 16 16 16 16 16 16 16 16 16 16 15 15 15 14 14 14 14 14 14 14 13 13 13
20 20 19 19 19 18 18 18 17 17 17 17 17 17 16 16 16 16 16 16 16 16 16 16 16 16 16 16 16 15 15 15 15 14 14 14 13 13 13 13 13 13 13
20 20 19 19 19 18 18 17 17 17 17 17 17 17 16 16 16 16 16 16 16 16 16 16 16 15 15 15 15 15 15 15 14 14 14 13 13 13 13 13 12 12 12
20 20 19 19 19 18 18 17 17 17 17 17 16 16 16 16 16 16 16 16 16 15 15 15 15 15 15 15 15 15 14 14 14 14 14 13 13 12 12 12 12 12 11
20 20 19 19 19 18 18 17 17 17 17 16 16 16 16 16 16 15 15 15 15 15 15 15 15 15 15 14 14 14 14 14 14 13 13 13 12 12 12 11 11 11 10
20 20 19 19 19 18 18 17 17 17 17 16 16 16 16 16 15 15 15 15 15 15 15 14 14 14 14 14 14 14 14 14 13 13 13 12 12 12 11 11 11 10 10
20 19 19 19 18 18 18 17 17 17 16 16 16 16 15 15 15 15 15 15 14 14 14 14 14 14 14 14 14 13 13 13 13 13 13 12 12 12 11 11 10 10 10
20 19 19 19 18 18 17 17 17 16 16 16 16 15 15 15 15 15 14 14 14 14 14 14 13 13 13 13 13 13 13 13 12 12 12 12 12 11 11 11 10 10 9
20 19 19 18 18 18 17 17 17 16 16 16 15 15 15 14 14 14 14 14 14 14 13 13 13 13 13 13 12 12 12 12 12 12 11 11 11 11 10 10 10 9 9
20 19 19 18 18 17 17 17 16 16 16 15 15 15 14 14 14 14 14 14 13 13 13 13 12 12 12 12 12 12 12 12 11 11 11 11 10 10 10 10 10 9 9
19 19 18 18 17 17 17 16 16 16 15 15 15 14 14 14 14 13 13 13 13 13 13 12 12 12 12 12 12 11 11 11 11 11 10 10 10 10 9 9 9 9 9
19 18 18 17 17 16 16 16 16 15 15 15 14 14 14 14 13 13 13 13 13 13 12 12 12 12 11 11 11 11 10 10 10 10 10 10 9 9 9 9 9 8 8
18 18 17 17 16 16 16 15 15 15 15 14 14 14 14 13 13 13 13 12 12 12 12 11 11 11 11 11 10 10 10 10 10 9 9 9 9 8 8 8 8 8 8
18 17 17 16 16 16 15 15 15 15 14 14 14 14 13 13 13 13 12 12 12 12 11 11 11 10 10 10 10 9 9 9 9 9 8 8 8 8 8 8 8 8 7
17 17 16 16 16 15 15 15 14 14 14 14 13 13 13 13 13 12 12 11 11 11 11 10 10 10 10 10 9 9 9 8 8 8 8 8 8 7 7 7 7 7 7
16 16 16 15 15 15 14 14 14 14 13 13 13 13 12 12 12 12 11 11 11 10 10 10 10 10 9 9 9 9 8 8 8 7 7 7 7 7 7 7 7 7 7
16 15 15 15 14 14 14 14 13 13 13 12 12 12 12 11 11 11 11 10 10 10 10 10 9 9 9 9 8 8 8 8 7 7 7 7 7 7 7 7 7 6 6
15 15 14 14 14 14 13 13 13 12 12 12 12 11 11 11 11 10 10 10 10 10 10 9 9 9 8 8 8 8 7 7 7 7 7 7 7 7 7 7 6 6 6
14 14 14 13 13 13 12 12 12 12 12 11 11 11 11 10 10 10 10 10 10 9 9 9 8 8 8 8 8 7 7 7 7 7 6 6 7 6 6 6 6 6 6
14 13 13 13 12 12 12 12 11 11 11 11 11 11 10 10 10 10 10 9 9 9 9 9 8 8 8 8 7 7 7 7 6 6 6 6 6 6 6 6 6 6 6
13 13 12 12 12 12 11 11 11 11 11 11 10 10 10 10 10 9 9 9 9 9 8 8 8 8 7 7 7 7 6 6 6 6 6 6 6 6 6 6 6 6 6
12 12 12 12 11 11 11 11 11 10 10 10 10 10 9 9 9 9 9 9 9 8 8 8 8 8 7 7 7 7 6 6 6 6 6 6 6 6 6 6 6 6 6
12 12 11 11 11 11 11 10 10 10 10 10 10 9 9 9 9 9 8 8 8 8 8 8 8 7 7 7 7 7 6 6 6 6 6 6 6 6 6 6 6 6 6
11 11 11 11 11 10 10 10 10 10 10 9 9 9 9 9 9 8 8 8 8 8 8 7 7 7 7 7 7 6 6 6 6 6 6 6 6 6 5 5 6 6 6
11 11 10 10 10 10 10 10 10 9 9 9 9 9 9 8 8 8 8 8 8 7 7 7 7 7 7 7 6 6 6 6 6 6 6 6 5 5 5 5 5 5 5
10 10 10 10 10 10 10 10 9 9 9 9 9 9 8 8 8 8 8 7 7 7 7 7 7 7 7 6 6 6 6 6 6 6 6 5 5 5 5 5 5 5 5
Wind_Speed
6 6 5 4 4 4 3 3 3 2 2 2 2 2 1 1 1 2 2 2 2 2 2 3 3 3 3 3 3 3 4 4 4 1 1 2 2 3 4 6 7 7 8
6 5 5 4 4 4 3 3 3 2 2 2 2 2 2 1 1 1 1 1 1 2 1 2 2 2 2 2 2 3 3 3 4 4 2 2 2 4 5 6 6 7 8
6 6 5 5 4 4 3 3 3 3 3 3 2 2 2 1 1 1 1 1 1 1 1 1 1 1 1 1 2 2 2 3 3 4 3 2 2 3 4 5 6 6 7
7 6 6 5 5 4 4 3 3 3 3 3 3 2 2 1 1 1 1 1 1 1 0 0 0 0 1 1 1 2 3 4 4 4 4 3 2 3 4 4 4 3 3
7 6 5 5 5 5 4 4 3 3 3 3 4 3 2 2 1 1 1 1 2 2 2 2 2 2 1 1 1 2 4 4 4 4 4 3 3 4 4 3 4 4 3
7 6 6 6 5 5 5 4 4 4 3 4 4 3 3 2 2 3 3 2 3 2 2 3 3 3 4 4 3 4 4 4 5 4 4 4 4 4 3 5 5 4 2
7 6 6 6 6 5 5 5 4 4 4 4 4 3 3 2 4 4 4 3 3 2 2 2 2 4 4 4 5 6 5 4 4 4 5 5 5 5 6 5 4 3 2
7 6 6 6 6 5 5 5 4 3 3 3 3 3 3 3 4 4 5 4 4 3 3 3 3 3 3 4 5 5 5 5 3 2 3 3 4 6 6 5 5 5 4
7 7 7 7 6 6 5 5 4 4 3 3 3 3 3 2 3 4 4 3 3 3 3 3 3 3 4 4 5 5 5 5 7 7 6 6 7 9 9 7 6 5 3
8 7 7 7 7 6 6 5 3 4 4 4 3 3 2 2 2 4 4 3 3 2 3 3 4 4 4 5 4 5 5 3 4 6 7 7 7 7 8 6 6 6 3
6 6 6 6 6 6 5 4 4 4 4 4 3 2 2 2 2 3 4 3 3 2 2 2 2 4 5 5 4 4 4 4 5 5 5 5 5 4 4 3 4 4 4
7 7 7 6 5 5 5 4 4 5 5 4 3 2 1 1 2 3 4 4 4 3 2 1 2 4 6 6 5 6 7 6 5 5 5 4 3 3 2 3 4 4 2
7 6 6 6 5 5 5 5 4 4 4 3 3 2 1 1 1 2 3 5 5 3 2 4 5 6 6 5 6 6 5 4 4 4 4 2 2 2 3 3 4 5 6
8 7 6 6 5 5 4 4 4 4 3 3 3 3 2 1 1 1 2 3 4 4 3 4 6 7 5 5 4 4 3 3 3 3 3 2 2 2 2 2 2 2 3
7 6 6 6 6 5 4 2 3 2 3 4 4 3 3 2 2 4 3 3 3 4 4 3 3 3 3 3 2 2 2 2 3 2 3 2 2 2 2 1 2 2 2
6 5 5 4 4 4 4 3 5 3 4 3 3 3 2 2 4 5 5 5 6 8 5 3 3 3 2 2 2 2 1 2 2 2 2 2 2 2 2 1 1 2 2
6 5 4 4 5 5 5 5 3 2 4 4 3 2 2 3 4 5 6 6 6 7 3 3 3 3 2 2 2 2 2 2 2 2 2 2 2 2 2 2 2 1 1
5 5 5 4 4 4 4 4 4 4 2 1 2 2 2 4 5 6 7 7 3 3 2 3 3 3 3 3 3 2 2 2 2 2 2 2 2 3 2 3 2 2 2
5 3 3 4 4 4 4 4 4 4 3 2 1 1 2 3 4 5 6 3 3 3 3 3 3 3 3 3 3 3 3 3 2 2 3 3 3 3 3 3 3 3 3
4 5 4 4 4 4 4 4 4 4 3 3 2 2 2 2 2 2 2 2 2 3 3 3 3 4 3 3 3 3 3 3 3 3 3 3 3 4 4 4 4 4 4
4 4 6 4 3 4 4 4 4 3 3 3 2 3 5 3 3 3 3 3 3 3 4 4 4 4 4 4 4 4 4 3 3 4 4 4 4 4 4 4 4 4 4
4 4 4 4 3 3 3 3 4 3 3 3 2 2 5 3 2 3 3 3 3 4 4 4 4 4 5 5 5 5 5 4 4 4 5 5 4 4 4 4 4 4 4
4 4 4 3 3 4 4 3 3 3 3 3 3 2 3 3 3 3 3 3 3 3 4 4 4 4 5 6 7 6 5 5 5 6 5 5 5 5 4 5 5 5 5
4 4 4 4 3 3 3 3 3 3 3 3 2 2 3 3 3 4 3 3 3 4 4 5 5 6 6 6 6 7 8 8 8 8 8 6 6 5 5 5 5 6 6
4 4 4 4 3 3 3 3 3 3 3 3 3 2 2 3 3 3 3 3 3 4 4 4 4 5 7 7 7 7 8 9 9 8 8 7 6 6 6 6 5 6 6
4 4 3 3 3 3 3 2 2 2 2 2 2 2 2 2 2 2 2 2 3 3 3 3 4 5 6 7 8 9 9 10 10 10 8 7 6 6 7 6 7 7 7
Wind_Direction
177 179 181 182 177 175 180 192 192 184 176 179 188 181 180 194 189 189 223 223 218 227 219 211 232 226 217 217 213 206 201 189 201 205 157 135 132 123 107 101 98 98 101
174 170 172 167 158 159 169 173 165 159 151 152 145 143 142 140 164 187 230 230 206 219 223 212 235 219 214 219 209 203 196 186 181 184 168 152 133 129 116 103 97 95 94
165 163 161 159 157 160 164 155 151 144 132 126 125 128 126 121 129 184 185 188 188 209 206 206 233 208 219 215 198 189 176 165 165 165 160 134 120 128 115 99 91 86 92
163 162 164 165 163 159 153 149 150 146 141 133 126 121 117 112 102 84 103 111 92 56 52 96 88 161 208 202 186 177 161 153 151 152 149 135 130 130 126 123 106 80 78
161 164 169 161 150 143 141 138 134 136 140 134 120 105 90 96 78 73 86 99 86 62 46 42 47 67 84 121 144 161 158 157 154 153 149 136 139 153 153 144 133 111 69
162 163 157 149 144 143 139 131 125 121 122 122 115 109 93 75 67 87 96 96 91 84 63 41 41 50 63 80 93 109 138 156 164 161 160 165 175 167 153 151 143 139 133
159 156 154 149 149 149 142 132 130 128 121 115 114 117 107 72 75 85 90 94 89 76 67 54 54 50 56 70 73 76 77 88 138 160 166 178 177 177 167 162 159 148 145
154 157 155 152 151 145 138 138 132 122 120 119 117 115 105 83 88 95 94 93 84 66 57 53 65 52 56 82 86 77 65 54 65 117 153 166 165 165 167 163 149 122 93
163 168 164 161 158 153 152 149 140 133 127 121 119 119 112 85 90 104 101 100 89 65 55 54 68 68 57 85 101 97 80 58 61 83 96 111 126 137 141 136 139 142 141
172 172 164 164 164 163 162 153 142 140 142 137 125 122 122 106 99 111 114 116 106 83 59 49 57 71 74 86 107 112 104 85 84 82 83 90 107 125 136 151 162 162 153
160 155 155 160 162 158 155 150 144 141 138 136 131 117 105 103 99 111 120 131 137 120 95 65 56 75 84 82 86 99 116 114 100 96 91 89 91 101 115 124 148 163 164
150 152 155 155 156 154 151 148 147 150 150 150 142 124 90 78 87 108 124 129 133 130 125 110 93 91 89 87 88 97 101 101 102 99 95 92 96 98 93 99 107 107 98
141 148 152 147 148 149 151 152 151 154 158 161 157 158 151 100 83 97 130 131 126 121 122 121 114 104 93 88 93 101 104 107 111 109 108 98 85 92 100 95 88 90 79
148 154 156 154 153 147 146 153 159 167 171 170 174 180 176 155 138 120 130 130 124 118 111 102 97 93 88 85 89 94 95 108 120 121 119 106 99 99 94 94 105 109 95
152 156 161 158 153 148 140 136 157 160 186 182 188 180 176 195 203 170 158 160 158 143 125 106 99 99 97 94 92 91 97 106 108 112 121 118 116 109 95 84 104 108 119
155 160 162 161 158 157 152 117 69 91 105 114 131 157 176 171 155 157 159 154 145 139 127 132 141 144 149 150 143 132 127 132 132 132 134 134 139 141 132 116 112 132 145
156 158 159 162 165 165 164 163 161 101 84 93 110 139 162 162 156 154 150 143 143 142 140 160 170 177 182 181 179 176 176 170 158 156 157 156 155 159 154 156 162 165 175
147 154 162 170 171 169 171 173 172 169 165 134 71 86 137 148 147 146 142 130 130 149 176 183 192 196 193 191 191 190 180 167 167 176 177 177 179 182 184 186 189 197 206
147 152 162 165 166 165 163 163 162 162 162 152 120 88 101 119 117 131 143 152 174 188 195 199 201 202 202 201 200 195 190 189 190 191 194 197 193 193 204 208 207 205 211
147 152 159 157 153 154 156 161 163 167 173 175 179 177 143 121 130 152 173 187 194 204 204 208 210 210 209 206 205 201 201 203 200 204 208 208 206 208 211 210 210 213 221
153 153 149 147 153 161 164 170 173 176 180 184 197 182 165 175 188 194 200 209 216 218 215 213 213 212 211 209 208 209 212 216 215 215 214 214 213 216 219 217 215 216 220
153 154 156 158 159 162 168 170 168 174 181 183 188 167 167 181 202 214 219 225 227 225 218 213 218 217 214 212 212 214 217 222 225 223 222 220 217 218 218 217 218 218 222
155 154 154 156 159 162 167 174 175 177 181 186 182 179 184 203 217 224 229 231 232 231 227 220 223 227 225 220 216 213 217 224 227 225 222 223 221 218 216 219 220 222 225
153 155 158 160 160 164 169 173 176 176 177 181 187 198 207 215 224 229 232 236 237 237 232 227 231 236 232 225 224 225 230 235 233 224 219 220 219 220 221 225 226 226 228
154 157 159 161 165 170 174 179 187 191 194 197 202 210 220 226 234 239 238 238 239 242 242 235 237 239 237 234 234 238 244 244 240 231 221 218 219 217 219 224 229 232 233
152 154 155 159 165 168 171 179 191 195 199 202 205 214 224 232 243 250 252 249 246 246 248 245 247 247 247 244 247 249 248 247 245 237 226 223 223 227 223 226 231 232 235
Height
1532 1534 1535 1536 1537 1538 1539 1540 1541 1542 1542 1543 1543 1543 1544 1544 1544 1545 1545 1545 1545 1544 1544 1543 1544 1544 1544 1544 1544 1544 1544 1545 1545 1546 1547 1548 1549 1549 1550 1550 1551 1551 1551
1531 1532 1533 1534 1535 1536 1537 1538 1539 1539 1540 1541 1541 1541 1542 1542 1542 1543 1542 1542 1542 1541 1541 1541 1541 1541 1541 1541 1540 1540 1541 1541 1542 1542 1543 1544 1545 1546 1547 1547 1548 1548 1549
1529 1530 1532 1533 1534 1535 1536 1536 1537 1538 1538 1539 1539 1540 1540 1540 1540 1540 1540 1540 1540 1539 1539 1538 1538 1538 1538 1537 1537 1537 1537 1538 1539 1539 1540 1541 1542 1543 1544 1545 1545 1546 1547
1527 1529 1530 1531 1532 1533 1533 1534 1535 1536 1536 1537 1537 1538 1538 1538 1538 1538 1538 1538 1538 1537 1537 1537 1536 1536 1535 1535 1535 1535 1535 1535 1536 1536 1537 1538 1539 1540 1541 1542 1543 1544 1545
1526 1527 1529 1530 1531 1531 1532 1533 1533 1534 1535 1535 1536 1536 1536 1537 1537 1537 1536 1536 1536 1536 1535 1535 1534 1534 1534 1533 1533 1533 1533 1533 1533 1533 1534 1535 1536 1537 1538 1540 1541 1542 1543
1524 1526 1528 1528 1529 1530 1531 1531 1532 1533 1533 1534 1534 1535 1535 1535 1535 1535 1535 1535 1534 1534 1534 1534 1533 1533 1532 1532 1531 1531 1531 1531 1531 1531 1532 1533 1534 1535 1537 1538 1539 1540 1541
1523 1525 1526 1527 1528 1529 1529 1530 1531 1532 1532 1532 1533 1533 1533 1534 1534 1534 1534 1533 1533 1533 1533 1532 1532 1531 1531 1531 1530 1529 1529 1529 1530 1530 1530 1531 1532 1533 1535 1536 1537 1539 1540
1521 1523 1524 1526 1527 1528 1528 1529 1530 1531 1531 1531 1532 1532 1532 1533 1533 1533 1532 1532 1532 1532 1532 1531 1531 1530 1530 1530 1529 1529 1528 1528 1529 1529 1530 1530 1531 1532 1533 1535 1536 1537 1539
1519 1521 1522 1524 1526 1527 1527 1528 1529 1529 1530 1530 1530 1531 1531 1531 1532 1531 1531 1531 1531 1531 1530 1530 1530 1530 1529 1529 1529 1528 1528 1528 1528 1529 1529 1529 1530 1531 1532 1534 1535 1536 1537
1517 1519 1520 1522 1524 1525 1526 1527 1527 1528 1528 1529 1529 1529 1530 1530 1530 1530 1530 1530 1530 1530 1529 1529 1529 1529 1528 1528 1528 1528 1527 1528 1528 1528 1528 1529 1530 1531 1532 1533 1534 1535 1536
1515 1517 1519 1521 1522 1523 1524 1525 1526 1526 1526 1527 1527 1527 1528 1528 1529 1529 1529 1529 1529 1528 1528 1528 1528 1528 1528 1528 1528 1527 1527 1528 1528 1528 1528 1529 1529 1530 1531 1532 1533 1535 1536
1512 1514 1516 1518 1520 1521 1522 1523 1524 1524 1524 1525 1525 1526 1526 1527 1527 1527 1527 1527 1527 1527 1527 1527 1527 1527 1527 1527 1527 1527 1527 1527 1527 1528 1528 1528 1529 1530 1531 1532 1533 1534 1535
1509 1512 1514 1516 1517 1518 1519 1521 1521 1522 1522 1523 1523 1523 1524 1525 1525 1525 1526 1526 1526 1526 1526 1526 1526 1526 1526 1526 1526 1526 1527 1527 1527 1527 1528 1528 1529 1530 1531 1531 1532 1533 1534
1507 1509 1511 1513 1514 1515 1516 1518 1519 1520 1520 1520 1521 1521 1522 1523 1523 1524 1524 1524 1524 1524 1524 1524 1525 1525 1525 1525 1525 1526 1526 1526 1527 1527 1527 1528 1529 1530 1530 1531 1532 1532 1533
1504 1506 1508 1509 1511 1513 1514 1515 1516 1517 1519 1519 1519 1520 1520 1520 1521 1521 1522 1522 1522 1522 1523 1523 1523 1523 1524 1524 1524 1525 1525 1526 1526 1527 1527 1528 1528 1529 1530 1531 1531 1532 1532
1502 1503 1505 1507 1509 1510 1511 1512 1513 1515 1516 1516 1517 1517 1517 1518 1519 1519 1520 1520 1520 1521 1521 1521 1522 1522 1522 1523 1523 1523 1524 1524 1525 1526 1527 1527 1528 1529 1530 1530 1531 1531 1532
1500 1501 1503 1505 1506 1507 1508 1509 1510 1512 1513 1514 1514 1514 1515 1516 1516 1517 1517 1518 1518 1519 1519 1519 1520 1520 1521 1521 1522 1522 1522 1523 1524 1525 1526 1526 1527 1528 1529 1529 1530 1531 1531
1497 1499 1500 1502 1503 1504 1506 1507 1508 1509 1510 1510 1512 1512 1512 1513 1514 1514 1515 1515 1515 1516 1516 1517 1517 1518 1519 1519 1520 1520 1521 1522 1523 1523 1524 1525 1526 1527 1527 1528 1528 1529 1529
1494 1496 1498 1499 1500 1501 1503 1504 1505 1506 1507 1508 1508 1509 1510 1510 1511 1511 1512 1512 1512 1513 1513 1514 1515 1516 1516 1517 1517 1518 1518 1519 1520 1521 1522 1523 1524 1525 1525 1526 1526 1527 1528
1491 1494 1495 1496 1497 1498 1500 1501 1502 1503 1504 1505 1505 1506 1507 1507 1508 1508 1509 1509 1510 1510 1511 1511 1512 1513 1513 1514 1514 1515 1515 1516 1517 1518 1519 1520 1521 1522 1523 1523 1524 1525 1525
1490 1492 1493 1493 1494 1496 1497 1498 1499 1500 1501 1502 1503 1503 1504 1505 1505 1506 1506 1506 1507 1507 1508 1508 1509 1510 1510 1510 1511 1511 1512 1513 1514 1515 1516 1517 1518 1519 1520 1521 1521 1522 1522
1489 1490 1491 1492 1493 1494 1495 1496 1496 1497 1498 1499 1500 1501 1502 1502 1503 1503 1503 1504 1504 1505 1505 1506 1506 1507 1507 1507 1508 1508 1509 1510 1511 1512 1513 1514 1515 1515 1516 1517 1518 1518 1519
1487 1488 1489 1490 1491 1492 1493 1494 1494 1495 1497 1498 1498 1499 1499 1500 1500 1501 1501 1501 1502 1502 1502 1503 1503 1503 1504 1504 1505 1505 1506 1506 1507 1508 1509 1510 1511 1511 1512 1513 1513 1514 1515
1486 1486 1487 1488 1489 1490 1491 1492 1493 1494 1495 1496 1496 1497 1497 1498 1498 1498 1499 1499 1499 1499 1499 1499 1500 1500 1500 1501 1501 1502 1502 1503 1504 1504 1505 1506 1506 1507 1508 1508 1509 1510 1510
1484 1485 1486 1487 1488 1489 1490 1491 1492 1493 1493 1494 1494 1495 1495 1495 1496 1496 1496 1496 1496 1496 1496 1496 1496 1497 1497 1497 1498 1498 1499 1499 1500 1500 1501 1501 1502 1502 1503 1503 1504 1505 1505
1483 1484 1485 1486 1487 1488 1488 1489 1490 1491 1492 1492 1492 1493 1493 1493 1493 1494 1494 1494 1494 1493 1493 1493 1493 1493 1494 1494 1494 1495 1495 1495 1496 1496 1497 1497 1497 1498 1498 1498 1499 1499 1500